Theta_e
348 347 347 347 347 346 347 347 347 348 347 346 346 347 346 346 345 344 343 343 341 339 339 343 345 345 345 345 345 346 346 347 348 348 344 343 347 348 351 351 346 345 346 347 349 350 350 348 347 348 348 347 347 347 346 347 349 350 351 352 353 354 354 354 354 355 354 352 351 352 352 352 353 353 353 354 350 345 345 343 341 342 344 343 343
348 347 347 346 347 347 348 348 347 347 346 345 346 346 346 346 345 345 343 343 342 340 338 341 344 346 345 345 344 345 346 344 345 348 346 344 344 345 349 350 346 344 347 348 349 349 350 348 346 347 348 347 348 347 346 346 347 349 351 352 352 352 354 354 354 354 354 353 353 353 353 352 352 353 355 355 351 347 347 345 342 343 345 344 344
348 347 348 347 347 347 348 348 347 346 346 346 346 345 345 346 345 345 345 345 344 343 340 341 344 346 345 345 345 346 346 343 343 347 348 347 346 345 349 350 347 346 347 349 349 349 350 349 348 348 347 348 348 347 346 346 346 347 349 351 352 352 353 354 355 354 353 353 353 353 354 354 353 354 353 351 350 349 347 345 342 343 345 345 345
349 349 349 348 346 346 348 348 347 346 347 346 345 345 345 345 345 345 346 346 345 344 343 343 345 345 345 346 346 346 347 347 347 348 348 348 348 348 349 350 350 350 349 349 350 349 349 349 349 349 347 347 348 348 347 347 347 348 349 350 351 352 352 354 355 355 353 353 354 354 353 353 354 355 352 350 350 349 346 344 343 344 345 344 345
350 350 349 348 347 348 348 348 347 347 347 346 345 345 344 344 345 345 345 346 345 344 344 344 345 345 344 345 347 346 347 348 349 348 347 348 349 349 349 349 350 350 349 349 350 350 350 349 349 349 348 348 348 348 347 348 349 350 350 351 352 352 353 354 355 355 354 354 355 354 353 353 353 353 351 351 351 349 346 345 345 345 346 345 345
348 349 350 349 347 348 349 347 347 348 346 346 345 345 345 345 345 345 345 346 346 345 343 342 343 344 341 342 346 347 347 348 348 348 347 348 349 349 349 349 350 350 350 350 350 350 350 350 350 350 349 348 348 348 349 349 350 352 352 352 352 352 354 355 355 355 354 355 356 355 354 354 354 353 350 350 352 351 348 348 347 346 346 346 346
345 347 349 349 348 348 348 348 348 348 347 346 346 346 345 345 345 346 346 346 345 345 344 342 341 342 341 342 346 347 348 349 348 348 348 349 350 349 348 349 349 349 350 350 350 351 350 350 350 350 350 350 348 349 350 350 351 352 353 354 354 354 354 355 355 354 351 350 352 353 352 351 352 355 353 349 350 350 348 348 348 347 346 346 346
343 346 348 348 349 349 348 348 349 347 347 347 346 346 345 345 346 346 346 346 345 344 344 343 342 343 343 344 346 347 349 350 349 349 349 349 350 350 350 349 349 349 349 350 350 351 350 350 350 349 350 350 347 347 349 350 351 352 353 354 355 355 353 352 353 352 347 345 348 351 351 349 348 352 355 351 350 350 347 347 349 347 346 346 346
345 346 346 347 348 348 348 348 349 348 348 347 346 346 346 345 346 346 346 346 345 344 344 344 344 345 345 345 346 347 348 349 349 349 349 350 349 349 350 350 349 350 350 350 351 351 351 350 349 350 350 347 341 341 343 345 346 349 352 354 354 353 351 350 350 349 348 346 346 347 349 349 348 350 353 352 351 352 351 349 350 348 346 346 346
347 347 346 346 346 346 346 346 347 348 347 345 344 345 346 346 345 346 346 346 346 345 345 345 345 345 346 346 346 347 348 348 348 348 348 349 350 350 350 350 351 351 351 351 351 351 351 350 349 350 347 341 337 337 338 338 339 342 347 351 351 349 348 348 347 348 347 347 348 347 347 350 351 351 353 351 351 353 353 352 351 348 345 346 347
349 349 349 348 346 346 346 345 345 344 343 343 341 342 344 346 345 345 346 346 345 346 346 346 346 346 346 347 347 347 347 346 348 347 343 342 345 349 350 350 351 351 350 350 350 350 350 350 350 350 346 339 336 337 337 336 338 342 345 347 348 346 347 347 347 348 347 347 351 352 349 349 350 349 350 350 351 354 354 351 351 348 345 345 346
350 350 350 349 348 346 346 345 345 343 341 340 339 339 342 346 346 345 346 345 345 346 346 346 346 346 346 347 347 347 347 346 347 346 341 338 340 345 348 349 350 350 349 350 349 350 350 350 350 351 349 343 339 340 342 340 341 343 345 346 347 347 347 347 348 348 347 346 350 352 349 348 346 344 347 351 352 354 355 353 350 348 346 346 347
350 349 349 348 348 347 345 345 345 345 344 342 340 339 341 343 345 346 346 345 345 346 345 344 345 346 347 347 347 347 347 347 347 345 341 338 339 342 345 347 348 349 350 350 350 350 351 351 351 351 351 347 342 342 346 345 343 344 345 345 346 347 347 347 346 347 346 346 348 349 349 348 345 346 351 354 353 353 354 353 352 350 348 348 348
348 348 347 346 347 347 346 346 346 346 345 345 344 343 341 341 343 346 347 346 344 344 343 343 344 345 346 347 347 348 347 347 348 346 341 337 339 341 343 345 347 348 349 350 350 350 350 350 350 350 351 351 346 343 345 346 344 343 344 345 345 345 346 345 345 345 346 346 347 347 349 349 348 351 355 353 350 351 351 351 353 353 351 349 348
345 345 345 346 346 347 347 347 346 346 346 346 346 344 343 342 342 343 346 345 343 342 340 340 342 343 344 344 345 347 346 346 346 343 338 337 339 341 342 343 345 347 348 349 349 347 346 347 347 348 349 351 349 345 346 349 348 345 344 345 344 344 345 345 344 345 346 347 346 346 348 349 350 353 354 351 350 351 349 349 350 352 351 349 347
347 346 345 347 347 347 347 347 347 347 346 346 346 345 344 343 342 342 343 343 343 342 341 339 340 341 341 341 342 344 345 345 343 338 334 334 338 342 343 343 343 344 346 348 348 345 343 344 344 345 346 347 346 345 345 348 348 346 345 345 345 345 346 345 345 346 347 347 346 346 346 347 348 350 351 350 351 350 348 347 348 348 348 347 346
347 345 345 346 347 348 348 348 350 349 348 347 347 346 345 344 344 343 342 342 342 342 342 342 342 342 341 340 339 340 341 342 340 336 333 333 336 341 343 342 343 343 343 345 345 344 343 343 343 343 343 344 344 344 344 345 346 345 345 345 346 347 346 345 346 347 347 347 345 344 345 346 347 348 349 349 350 349 348 348 348 348 348 347 346
345 344 344 345 346 347 347 348 349 350 350 350 349 348 348 347 347 346 345 344 345 344 344 345 345 345 344 342 340 339 340 341 340 336 334 334 335 338 341 342 342 342 342 343 342 342 342 343 343 343 343 343 344 344 345 345 345 346 345 345 347 347 347 348 348 347 346 346 343 343 345 346 347 348 348 348 349 349 348 347 347 347 347 347 345
343 344 344 345 345 346 346 347 348 349 350 350 349 349 349 348 348 348 347 346 347 346 346 346 347 347 346 345 343 340 340 343 344 342 339 339 337 337 338 340 341 342 342 343 343 343 342 343 344 343 343 344 344 344 345 346 346 347 345 346 348 349 350 353 351 348 347 347 344 344 345 346 346 348 348 348 348 348 348 347 347 346 347 347 345
344 344 345 345 346 347 346 346 347 348 349 350 349 349 349 348 348 348 348 347 347 347 347 347 347 347 347 347 347 345 344 344 345 345 344 343 343 341 340 340 340 340 341 342 344 345 343 342 344 345 345 344 344 344 345 346 347 347 346 347 350 350 352 353 351 349 349 349 347 346 346 345 345 346 347 347 347 348 348 347 346 346 346 346 345
344 344 345 345 345 347 348 347 347 347 348 349 350 350 349 349 349 349 348 348 349 349 349 348 348 348 348 347 347 347 347 345 345 345 345 345 345 346 346 345 342 341 340 340 343 346 347 345 345 346 346 345 345 345 345 345 346 347 347 347 349 350 351 351 350 350 350 349 349 348 346 346 345 345 346 346 346 346 347 346 346 346 345 345 344
342 343 344 345 345 346 347 347 347 347 347 347 348 348 349 349 350 350 350 350 350 349 350 350 349 349 349 349 348 347 347 346 345 344 345 345 345 346 346 347 346 345 344 342 342 345 348 348 347 346 346 346 346 345 345 345 346 346 347 348 348 349 350 350 350 350 350 349 350 349 348 347 347 346 346 346 345 345 346 346 345 345 344 343 343
343 344 344 345 346 346 345 345 345 345 345 346 346 346 347 347 348 349 349 350 350 350 350 350 350 350 350 350 350 350 349 348 347 346 345 344 344 345 345 346 347 347 347 346 345 345 346 347 346 346 346 346 346 345 345 345 346 346 347 347 348 349 350 350 350 350 350 350 350 350 350 349 349 348 347 346 345 345 345 345 344 343 343 343 342
344 344 345 345 345 345 344 344 344 344 344 344 344 344 344 344 345 345 346 346 347 348 349 350 350 350 350 350 351 350 349 349 349 349 348 346 345 345 346 346 347 347 346 347 347 347 347 348 348 347 346 346 346 346 346 345 345 346 347 347 348 348 349 350 350 349 350 350 350 350 350 350 350 349 347 346 346 346 345 343 342 342 342 341 340
343 343 343 344 344 343 343 343 343 343 343 343 342 342 342 342 342 342 342 343 343 344 345 346 347 348 348 349 350 350 350 350 350 350 350 349 348 347 347 347 347 347 347 347 347 347 348 349 349 348 346 346 346 346 346 346 345 345 346 346 347 347 348 350 350 349 349 349 350 351 351 351 350 348 347 347 347 347 345 341 340 341 340 339 339
343 342 342 343 342 342 343 342 342 342 341 341 340 340 339 339 339 339 340 340 341 342 342 343 344 344 345 346 346 347 348 349 348 349 349 349 349 348 348 347 347 347 348 347 347 347 346 347 347 347 346 345 345 346 346 346 346 345 345 346 346 347 348 349 350 349 348 349 350 351 351 351 349 348 348 348 347 347 343 338 337 339 339 339 338
342 342 342 342 341 341 342 341 341 341 340 340 340 339 339 338 338 338 338 338 339 340 340 341 342 342 342 343 343 344 345 345 345 346 346 346 347 347 347 347 347 347 347 347 347 347 347 346 347 347 346 346 345 345 346 347 347 346 346 346 346 346 347 350 351 350 349 350 351 351 350 350 349 348 348 348 347 346 340 335 336 339 338 337 336
342 342 341 340 340 340 340 341 340 340 340 340 340 339 338 338 338 338 338 338 339 339 339 339 339 340 340 341 341 342 342 343 344 345 344 345 345 346 346 346 346 346 346 345 345 346 346 346 347 347 347 347 347 347 347 347 348 347 346 346 346 346 347 349 350 350 350 350 350 349 349 349 350 349 348 347 345 342 338 335 336 339 337 335 333
340 341 341 341 340 340 339 339 339 339 339 339 339 338 338 337 338 338 338 337 338 338 338 338 338 338 338 338 338 339 340 341 343 344 344 344 345 345 345 345 345 345 345 344 344 344 345 346 347 347 348 347 347 347 347 347 348 348 347 346 347 346 346 347 348 347 347 347 349 350 349 350 350 349 348 346 341 338 336 336 337 338 334 331 329
340 340 341 340 339 340 340 339 338 338 338 338 338 338 338 337 336 337 337 337 337 337 338 338 338 338 338 337 337 337 336 337 339 340 341 343 344 344 344 344 344 344 345 345 345 345 345 346 347 348 349 349 349 349 348 348 348 348 347 347 346 346 346 347 347 347 346 346 349 350 350 350 349 348 347 343 338 335 335 336 337 335 330 327 326
340 340 341 340 339 339 339 338 338 337 337 337 337 338 338 337 336 336 335 336 336 336 337 338 338 338 338 337 338 338 338 338 338 338 339 340 341 342 343 344 343 343 345 346 347 347 347 346 347 348 349 350 350 350 349 349 348 348 348 347 347 347 347 346 347 347 347 348 349 349 350 349 348 346 344 340 336 334 335 334 333 329 325 322 321
339 340 340 340 340 338 337 338 338 337 337 337 337 337 338 338 337 336 334 334 335 335 337 338 338 339 339 339 339 340 340 340 340 340 340 340 340 341 341 342 342 343 345 347 348 348 348 348 347 348 348 348 349 349 349 350 349 348 347 347 347 347 347 347 346 347 348 349 349 349 349 348 345 342 340 337 335 334 333 331 327 323 320 318 318
339 340 340 340 339 338 337 337 336 336 336 337 337 337 337 338 338 337 335 334 335 335 336 337 338 338 339 339 340 341 342 342 342 342 342 342 342 341 340 341 342 344 346 347 347 347 348 347 348 348 348 348 349 349 349 350 349 349 348 348 348 348 347 347 347 347 348 349 348 347 347 344 342 339 336 334 334 334 331 327 323 320 318 317 316
339 340 339 338 338 337 337 336 335 335 335 335 336 337 337 337 338 338 336 335 336 336 336 336 336 337 337 337 338 340 342 343 343 342 342 342 341 341 341 343 344 345 345 346 347 347 347 347 347 348 348 348 349 350 350 349 349 349 349 349 349 348 347 346 347 348 347 347 345 344 342 340 339 336 334 333 334 331 327 323 320 317 316 316 315
339 338 336 336 336 336 335 334 334 334 334 335 336 336 337 337 338 337 336 336 336 336 336 336 335 336 336 336 336 337 338 340 342 342 342 341 340 341 342 344 344 344 344 345 346 347 347 347 347 348 348 349 349 349 349 349 349 349 349 349 348 347 346 346 346 346 345 344 342 340 339 337 335 333 332 333 332 328 323 320 317 315 314 314 313
337 336 335 335 335 335 334 333 333 333 334 335 336 336 337 337 337 336 336 337 336 336 337 337 336 336 337 337 336 336 336 337 338 340 341 341 341 341 342 343 343 343 343 345 346 347 347 347 347 346 346 347 348 348 348 347 347 347 348 347 347 347 346 345 344 342 342 340 338 336 335 334 332 331 331 332 329 324 318 316 314 313 313 313 313
334 334 335 334 334 333 333 332 332 331 332 334 336 336 337 337 336 336 337 337 337 337 337 337 336 336 337 337 337 337 337 337 337 337 337 338 338 339 339 339 340 340 341 342 344 344 345 345 345 344 343 344 345 345 345 345 345 345 345 345 344 343 342 341 340 339 338 336 334 333 332 331 330 331 331 329 323 318 315 314 314 313 313 313 313
331 333 333 332 331 332 332 331 330 330 332 333 335 336 336 336 337 336 336 337 337 337 337 337 336 335 336 337 338 338 339 338 338 338 338 337 337 337 337 337 337 337 337 337 338 339 340 341 341 341 340 340 340 340 341 342 342 341 341 340 339 338 338 336 336 335 334 333 333 331 331 331 331 330 328 323 317 314 314 314 313 313 313 314 315
325 326 325 324 324 326 327 328 329 330 331 333 333 334 336 336 336 336 337 337 337 337 336 336 336 335 336 336 335 335 335 335 335 336 336 337 338 338 337 337 337 337 336 336 336 337 338 337 337 338 338 338 338 338 339 339 339 338 338 337 336 335 334 333 333 333 332 332 331 330 330 331 330 327 322 317 314 313 313 314 314 315 315 316 317
318 317 318 320 322 322 323 325 327 328 330 331 333 334 335 336 336 336 336 336 336 335 335 335 335 334 333 332 331 330 329 328 328 328 329 331 334 336 336 336 337 337 338 337 337 338 338 337 337 338 338 338 338 338 337 337 337 336 336 335 335 334 333 332 333 332 331 330 329 329 329 329 328 324 319 315 313 314 315 316 318 319 318 317 318
322 320 320 323 325 326 326 326 326 326 328 331 333 334 335 335 335 335 335 335 335 335 334 333 333 331 330 329 329 330 330 329 327 326 325 325 327 330 332 333 335 337 338 338 338 337 337 337 337 337 337 338 338 338 337 336 336 335 335 334 334 333 333 332 331 329 328 328 328 327 327 326 323 318 316 314 315 317 319 320 320 319 318 318 319
328 327 326 325 326 328 329 329 328 326 327 331 334 335 335 335 335 335 335 335 335 333 332 330 330 330 330 329 329 330 331 331 331 330 328 326 325 325 327 329 331 333 335 336 336 337 337 337 337 336 336 336 336 336 335 335 334 334 333 332 331 331 330 329 328 326 325 325 325 324 323 320 317 316 316 317 319 320 321 320 320 320 319 319 320
329 329 327 325 325 325 328 331 332 330 330 332 334 335 335 335 335 335 335 334 333 331 330 330 330 330 330 330 330 330 331 331 331 331 331 330 328 326 326 326 327 327 328 328 329 331 333 334 334 333 333 332 331 331 331 330 329 328 327 326 325 325 324 323 322 320 319 320 319 318 317 315 315 318 320 320 321 322 321 320 320 320 319 320 320
330 330 328 325 323 322 324 329 332 333 332 333 333 333 333 334 334 334 334 333 332 331 331 331 330 330 330 330 330 331 331 330 330 330 330 331 331 330 328 327 326 326 325 325 325 325 325 326 326 326 326 325 324 322 321 319 318 318 317 318 319 319 319 318 316 315 317 318 317 317 316 315 315 319 321 321 321 323 322 321 321 320 320 320 320
331 331 330 329 327 323 321 323 327 329 330 330 330 331 332 332 332 332 332 332 331 331 331 330 330 330 330 330 330 331 331 330 330 330 330 330 331 330 330 329 328 328 327 327 326 326 325 325 324 323 323 322 320 319 318 316 315 314 313 313 313 314 315 315 315 316 319 320 318 317 317 316 316 319 322 321 321 323 323 323 322 322 321 321 321
331 330 330 330 330 328 326 323 322 323 325 327 329 330 330 330 331 330 330 330 330 330 330 330 329 330 331 331 330 330 331 331 330 330 330 329 329 329 329 328 328 329 328 328 328 328 327 327 327 327 326 325 324 323 323 322 321 320 319 318 317 315 314 314 314 314 317 320 320 321 321 321 321 322 324 323 323 323 323 323 324 324 323 322 321
333 331 330 330 330 330 330 327 324 322 324 327 329 329 329 329 329 329 329 329 329 329 329 329 329 329 330 330 329 329 329 329 329 329 329 328 328 327 326 326 326 326 327 327 327 327 327 327 327 327 327 328 328 328 328 327 326 325 325 324 324 322 321 319 318 318 318 320 322 324 324 324 323 324 324 323 323 323 322 323 324 324 323 322 321
332 330 330 330 330 330 330 330 327 325 324 326 327 328 328 328 328 327 327 328 328 328 328 328 328 328 328 328 328 328 328 328 328 328 327 327 327 326 325 325 325 324 325 324 324 324 324 324 324 324 324 325 326 327 327 328 328 328 328 328 327 327 326 324 323 322 322 322 323 324 324 324 324 325 324 324 323 323 322 322 322 321 320 319 320
330 328 329 330 329 329 329 329 329 328 326 325 325 326 327 327 327 326 327 328 328 328 328 327 327 327 327 327 327 327 327 327 327 326 326 327 327 326 326 325 324 324 324 323 323 322 322 322 323 323 322 322 322 323 323 324 325 326 327 328 327 327 328 327 326 326 326 325 324 324 324 324 324 324 324 324 324 324 323 322 322 321 319 319 319
329 329 329 329 329 328 327 328 328 328 327 326 326 325 325 327 328 327 327 328 328 327 326 326 326 326 326 326 327 327 327 327 327 326 326 326 326 327 327 326 325 324 324 323 323 323 322 322 322 323 323 323 323 323 322 322 322 323 324 324 324 325 325 325 325 325 326 327 327 326 326 325 325 325 325 324 324 324 323 323 323 323 322 321 320
330 330 329 329 329 328 327 326 328 328 327 327 328 327 326 327 328 327 327 327 327 326 325 325 325 325 326 326 326 326 326 327 327 327 327 327 326 326 326 325 325 324 324 324 324 323 323 322 322 322 322 323 323 323 322 322 322 322 322 322 322 322 322 322 322 321 322 324 325 326 326 326 326 326 325 325 324 324 323 323 323 323 323 322 321
Wind_Speed
15 17 15 15 15 15 16 17 17 18 18 18 18 17 17 18 18 18 19 19 20 22 23 21 19 20 19 17 15 14 14 15 15 16 19 19 18 17 15 15 17 15 14 13 12 12 12 13 12 11 11 11 10 9 10 10 10 9 9 8 8 8 9 9 9 9 8 7 6 5 5 5 6 6 3 2 4 6 5 6 8 8 7 7 7
16 15 13 14 15 16 16 17 18 19 18 18 18 18 18 17 18 18 18 18 19 21 23 22 19 19 19 17 16 15 15 16 15 16 17 18 19 18 16 17 18 16 14 14 14 13 13 14 13 12 12 12 11 11 10 10 10 10 9 9 9 9 9 10 9 9 8 7 6 7 6 6 7 8 5 3 4 4 4 6 8 7 6 7 8
15 15 15 16 18 18 17 17 18 19 18 18 18 18 18 18 18 17 16 16 17 18 21 21 19 19 19 17 16 16 15 16 15 16 17 17 18 17 16 17 17 16 15 15 14 14 14 14 13 12 12 12 12 11 11 11 11 11 10 10 9 9 9 10 10 9 9 8 7 7 8 7 7 8 7 6 5 3 3 6 8 8 7 7 8
14 16 17 17 17 18 17 17 18 18 18 18 19 19 18 18 18 18 16 15 16 18 19 19 19 20 19 18 17 17 16 15 16 16 17 17 17 17 17 16 16 15 15 15 14 14 15 14 14 13 12 13 13 12 12 12 11 11 11 11 11 10 10 10 11 10 9 9 9 9 9 8 7 8 8 7 5 5 5 7 8 8 8 8 8
15 15 16 16 16 17 17 17 17 18 18 18 18 19 18 18 18 18 17 16 16 18 20 20 19 20 21 19 17 18 17 16 17 17 16 16 16 17 17 17 16 16 15 15 15 14 14 14 14 13 13 13 13 12 12 12 12 12 12 12 11 11 10 10 11 11 11 11 10 11 12 10 10 10 10 7 5 6 8 7 7 8 8 8 8
15 14 14 15 16 17 17 17 16 17 18 17 18 18 18 18 18 18 18 17 16 17 19 21 20 20 21 19 17 18 18 18 18 17 16 16 17 17 17 17 17 16 16 16 15 15 15 15 14 14 13 13 13 13 12 13 13 12 12 12 12 11 10 10 11 11 12 11 11 13 13 10 10 11 11 7 6 7 7 7 8 8 7 9 9
13 13 14 14 14 15 15 15 15 16 17 17 17 18 18 18 17 17 17 17 17 17 18 20 20 19 20 19 18 18 18 18 18 17 17 17 16 17 17 17 17 17 17 16 15 15 15 15 15 14 14 14 14 13 13 13 12 12 13 13 12 11 10 10 11 13 12 11 12 14 13 10 10 11 11 9 7 8 8 8 9 9 8 9 10
12 12 13 13 14 14 15 14 14 15 17 17 17 17 18 17 17 17 17 17 18 18 18 19 19 19 20 19 19 18 17 17 18 18 18 17 17 17 16 17 17 17 17 16 16 16 16 16 16 15 15 15 15 15 14 14 13 13 13 12 12 11 11 12 14 15 14 13 13 14 14 13 13 13 13 13 10 9 9 9 9 11 10 10 10
13 12 12 12 12 13 14 14 14 14 16 18 18 17 17 17 17 17 17 18 18 18 18 18 19 19 19 19 19 18 17 18 18 19 19 18 18 17 16 17 17 17 17 16 16 16 16 17 16 16 17 18 17 16 16 17 16 14 13 13 13 13 13 15 16 15 16 16 16 16 15 14 14 14 16 15 12 9 9 9 10 11 11 10 11
13 12 11 11 11 11 12 14 15 16 17 19 20 20 18 18 18 18 18 18 18 18 18 18 18 19 19 19 19 19 19 19 19 21 21 19 18 17 17 17 17 17 17 17 17 17 17 17 17 18 20 20 18 18 19 19 19 18 15 15 16 16 17 17 17 16 17 18 17 16 15 13 12 13 15 16 13 10 10 9 10 12 13 12 12
12 12 10 10 10 10 11 12 14 16 17 19 21 22 20 18 18 19 19 19 19 19 19 19 19 19 19 20 20 20 20 19 21 23 24 23 20 18 17 17 18 18 19 19 19 18 18 18 17 19 21 21 20 20 20 20 20 20 18 18 19 19 18 18 18 18 18 17 16 16 16 15 13 13 15 16 13 11 12 11 12 14 15 13 14
10 11 10 10 11 12 13 13 13 15 17 18 20 22 22 20 19 20 20 20 21 21 21 21 21 20 19 20 21 21 21 21 23 25 26 24 23 22 19 18 18 19 19 19 19 18 18 18 17 18 19 20 20 20 20 20 21 20 20 21 21 20 18 18 18 18 18 17 16 17 18 17 15 15 15 14 12 11 12 12 13 16 15 14 15
8 9 10 12 13 14 14 15 15 15 16 17 19 21 22 22 21 20 21 21 21 22 23 23 22 21 21 21 21 21 22 22 24 27 27 24 24 24 22 20 20 20 20 19 19 19 18 18 18 18 19 20 20 20 21 21 21 21 21 22 22 20 19 19 18 19 19 19 18 19 19 18 16 15 14 14 13 13 13 13 15 17 17 14 15
9 10 12 14 15 15 15 16 16 16 16 17 18 19 21 22 22 22 22 22 23 24 24 24 23 23 23 23 23 23 23 22 24 27 28 25 24 24 24 23 22 21 21 21 20 20 19 19 19 19 19 19 20 21 22 21 21 22 22 22 22 21 21 20 19 19 20 21 21 21 20 19 17 14 14 15 15 14 14 14 16 18 17 16 17
10 11 13 14 15 16 17 17 18 19 19 19 19 19 20 22 23 23 23 23 24 25 26 25 25 25 26 26 25 24 24 24 26 29 28 26 24 25 25 25 24 23 22 22 22 22 21 20 21 21 20 21 21 22 21 20 21 22 22 22 22 21 22 23 22 22 22 23 23 22 21 21 19 15 14 14 13 14 15 16 17 19 19 19 20
9 11 12 13 14 16 19 19 20 21 21 22 22 22 22 22 23 23 24 24 24 24 25 26 26 27 28 28 28 27 26 25 28 30 28 26 25 26 26 26 27 26 25 24 24 25 24 23 22 23 23 23 23 23 22 20 21 23 23 23 22 22 24 25 24 23 23 23 24 23 22 22 21 17 15 14 13 15 16 16 17 18 17 17 19
8 10 11 12 13 15 18 19 19 20 22 24 25 25 24 24 24 24 25 25 25 25 25 25 26 27 28 29 30 30 29 29 30 31 29 26 27 28 29 29 29 30 29 28 27 27 27 26 25 24 24 25 25 24 23 22 23 25 26 26 24 24 25 26 25 24 24 24 24 23 22 22 21 19 17 15 15 16 16 15 15 16 15 14 17
6 8 10 11 13 15 17 17 18 19 21 22 24 24 25 25 25 25 25 25 25 25 26 26 26 26 27 28 29 30 30 30 31 32 30 28 28 30 31 31 31 32 32 32 31 30 29 28 27 27 26 26 26 25 24 23 24 26 27 27 26 26 26 25 25 24 22 22 23 22 21 21 20 19 19 17 15 15 15 15 15 14 12 13 17
7 8 9 10 12 13 15 16 17 17 18 19 20 21 23 24 25 25 26 26 25 25 26 26 27 26 26 27 28 30 31 30 31 31 31 29 29 30 31 32 34 34 33 32 32 32 32 30 29 29 28 27 27 26 24 24 25 26 27 27 27 28 25 23 24 24 21 20 21 21 20 19 19 19 19 19 16 15 15 15 15 14 12 14 18
7 9 10 10 11 11 12 14 15 16 17 17 17 18 19 21 22 23 24 25 25 26 27 27 28 28 28 28 28 29 30 31 32 33 32 30 28 29 30 32 34 35 35 34 32 32 33 33 31 30 29 28 28 27 26 25 26 26 27 27 27 26 24 23 25 24 21 19 20 19 18 19 20 19 20 20 17 16 16 15 15 14 13 17 21
8 9 10 11 11 11 11 12 13 14 15 16 16 16 17 19 20 21 21 21 22 24 25 26 28 28 29 30 31 31 31 31 32 33 34 32 30 30 31 32 33 34 35 36 34 32 32 33 33 32 30 28 27 28 27 27 27 27 28 28 27 25 24 25 25 23 21 20 20 21 21 21 21 20 19 19 18 16 15 14 15 15 15 19 21
8 9 9 10 11 13 14 15 14 14 14 15 16 16 17 18 19 19 20 20 21 22 23 24 25 26 27 29 31 31 31 31 32 33 34 34 33 33 34 34 34 34 34 36 36 34 32 32 33 34 31 28 27 28 28 28 28 28 29 28 26 25 25 25 25 24 22 21 22 23 23 23 23 21 20 18 18 17 15 14 15 16 16 18 17
6 7 8 9 11 12 13 15 15 14 14 15 15 16 17 18 19 19 20 20 22 23 23 23 23 26 28 28 28 28 28 29 30 32 34 35 36 36 37 37 36 35 35 36 37 37 36 36 36 36 33 30 29 28 28 30 30 30 30 28 26 26 26 25 25 25 23 23 24 25 25 23 21 20 20 21 21 19 17 15 14 14 17 18 16
6 7 9 10 10 9 10 12 14 14 14 15 15 16 17 18 20 21 22 22 23 24 24 24 25 27 29 29 29 28 27 28 29 30 31 34 36 37 38 39 39 39 39 39 38 37 36 36 37 38 37 34 32 30 29 30 31 32 31 28 28 28 28 27 27 26 25 26 27 28 26 23 20 20 23 24 22 20 19 18 17 17 20 20 17
7 8 10 11 10 10 9 9 11 13 14 14 14 15 16 18 19 21 22 22 22 23 22 22 23 26 27 28 29 28 26 28 30 30 30 32 35 37 38 38 39 40 41 43 42 40 38 36 35 38 39 38 36 34 32 32 32 32 32 31 30 30 30 29 29 29 28 28 28 26 25 24 24 25 26 25 22 21 22 22 20 20 20 19 17
8 9 10 10 10 12 11 10 11 13 13 13 13 14 15 17 18 20 21 21 21 21 21 20 21 22 23 23 24 24 24 25 26 27 29 31 33 35 36 37 38 39 40 42 43 43 43 41 40 40 41 40 39 37 35 34 33 33 34 34 33 33 33 32 32 32 32 30 27 25 25 27 28 27 26 25 23 23 22 20 19 19 20 20 20
8 9 11 10 8 9 10 10 10 11 12 13 13 14 15 16 17 18 19 19 19 18 18 19 20 21 22 22 22 22 23 23 22 23 24 26 27 29 31 33 34 35 38 41 42 43 44 43 42 42 42 41 40 39 38 36 35 35 36 36 36 36 34 31 30 31 30 28 26 26 28 29 29 26 25 25 25 22 20 19 20 22 22 20 20
9 10 11 10 8 8 9 10 10 11 12 12 13 13 13 13 13 14 15 15 16 17 18 20 22 22 22 23 25 26 26 24 22 22 24 24 24 24 24 25 25 27 30 33 36 40 42 42 42 41 42 42 42 41 40 40 39 39 38 37 38 38 35 31 28 27 26 26 27 29 30 29 27 25 25 25 25 22 19 20 21 22 21 20 21
10 10 9 8 8 10 10 10 10 10 10 11 11 12 11 10 9 10 11 13 16 18 20 23 25 26 28 29 31 33 34 30 27 27 27 27 27 26 25 23 23 23 23 23 25 28 31 35 37 38 41 43 44 44 43 43 43 42 40 41 41 40 37 34 32 31 30 30 31 32 31 30 28 26 25 24 22 19 20 22 22 22 21 22 22
10 11 10 9 9 9 10 9 8 7 7 8 8 8 8 7 7 8 9 11 12 14 17 21 24 26 30 34 35 38 40 39 36 35 34 32 31 31 29 27 25 24 23 22 23 23 25 27 29 32 33 35 36 39 40 42 43 44 44 43 43 40 37 34 35 36 34 32 33 33 31 29 28 26 24 22 19 20 23 24 23 23 23 23 22
9 10 9 9 9 9 9 9 8 6 5 6 5 4 5 6 7 6 7 8 9 12 15 18 20 23 27 32 34 34 36 36 36 35 36 37 37 36 33 29 26 25 23 22 24 25 26 28 29 31 31 30 29 30 32 34 37 41 44 43 42 41 37 34 36 38 35 33 33 31 29 27 25 23 23 23 22 25 27 26 24 23 23 23 24
9 9 8 8 8 9 9 8 7 5 5 5 5 3 4 5 5 5 6 7 9 12 14 14 14 15 18 23 26 27 25 25 27 30 33 36 38 39 38 34 30 26 23 22 24 26 27 27 29 30 32 32 31 31 31 32 33 36 40 41 40 39 36 33 35 36 34 31 30 28 27 26 23 21 23 26 27 30 29 26 24 25 25 25 26
8 8 8 8 9 9 8 6 5 5 4 4 5 5 5 4 3 4 6 7 9 12 13 13 12 12 12 13 16 20 20 19 20 24 28 31 34 35 36 34 29 24 22 22 25 26 27 28 29 30 31 32 31 32 33 33 33 34 37 37 36 34 32 31 33 33 30 27 27 25 24 23 21 22 26 28 29 31 30 28 27 28 28 27 26
7 8 9 9 8 8 6 4 5 5 5 5 4 5 6 4 3 4 6 6 7 9 12 12 13 14 15 14 12 12 14 16 16 16 18 21 25 28 31 30 27 23 22 24 26 27 28 28 29 29 29 30 30 31 33 33 34 35 35 32 30 30 29 30 30 28 26 24 23 22 21 21 22 25 29 30 30 31 31 30 30 29 28 26 26
8 9 9 8 8 6 4 5 5 5 5 5 3 4 5 4 3 4 6 6 6 7 9 11 12 14 14 15 15 14 10 8 10 11 10 11 14 22 28 29 27 25 24 24 26 27 27 28 27 26 26 27 30 32 33 34 33 32 30 27 25 26 27 27 25 24 23 22 21 21 20 20 23 27 31 32 32 32 31 30 29 27 26 27 27
10 9 8 8 8 6 5 6 6 5 5 5 3 3 4 3 3 5 5 5 5 5 7 9 10 11 13 15 16 17 17 14 8 4 2 3 7 15 22 26 28 28 27 27 27 27 26 26 24 22 23 26 30 31 32 31 29 27 23 22 23 25 25 23 22 21 21 20 19 20 20 21 25 29 31 32 32 32 31 29 28 27 28 29 29
10 8 6 6 6 6 7 7 7 7 7 5 3 3 3 2 3 4 4 4 4 4 5 6 8 9 11 14 15 15 16 18 17 15 12 9 6 3 7 11 14 16 19 21 22 22 22 23 23 22 23 25 27 28 27 25 22 20 18 18 21 22 21 19 19 19 19 19 19 21 23 25 27 29 31 32 33 32 29 28 29 30 31 30 28
5 5 4 4 4 5 6 6 5 5 5 4 2 2 2 1 2 2 2 3 4 4 4 6 8 9 10 12 13 13 14 15 16 16 16 15 13 10 7 5 3 2 3 5 7 10 13 15 16 16 16 16 16 17 18 17 16 16 17 17 17 16 15 16 17 18 19 20 21 22 23 25 27 29 31 32 33 32 31 31 32 32 31 28 26
5 3 3 3 3 3 3 3 2 3 2 2 2 1 0 1 2 3 4 4 4 4 3 4 8 11 12 12 15 16 16 17 17 16 15 14 13 12 11 11 9 9 9 8 6 5 6 6 7 7 9 10 10 11 12 13 14 14 15 16 16 16 17 18 20 21 22 23 23 24 25 26 29 31 32 33 34 34 34 32 30 29 29 27 24
11 9 9 7 5 4 2 1 1 1 2 0 2 3 3 3 3 4 6 6 5 4 4 7 12 15 16 17 19 21 21 21 21 20 18 16 14 13 13 14 14 12 11 11 11 11 11 12 11 11 11 11 11 11 11 12 13 14 14 15 17 19 20 21 21 21 23 25 26 27 28 30 31 32 32 32 33 32 30 27 25 24 26 25 22
9 9 9 9 8 6 5 3 2 3 3 4 4 5 5 6 7 8 10 10 8 8 10 14 16 18 19 19 19 19 19 20 21 22 21 19 17 16 16 17 17 15 13 12 12 14 15 14 14 14 14 14 13 14 14 14 15 15 16 17 18 19 19 18 18 20 21 23 24 26 27 28 29 29 29 29 28 26 23 22 22 23 24 23 21
6 5 6 7 8 8 6 5 5 5 4 5 6 8 9 10 11 11 12 13 13 13 16 18 19 19 19 19 18 18 17 16 17 18 19 20 20 20 19 19 19 18 16 15 14 14 15 16 16 16 16 16 15 15 15 15 14 14 14 14 15 16 16 17 18 21 23 23 24 25 26 27 28 26 24 24 23 21 21 21 21 22 23 22 21
5 5 6 8 10 11 11 10 9 7 7 8 11 14 15 15 14 14 14 15 16 17 19 20 20 19 19 18 18 17 16 15 15 15 15 17 18 20 20 21 21 20 20 19 18 17 16 16 17 17 17 16 16 14 13 13 12 12 12 12 13 14 16 17 20 23 24 24 24 24 24 26 27 24 21 22 22 20 21 22 21 21 22 22 21
4 3 6 9 12 13 14 14 14 13 14 16 17 19 19 16 15 15 15 14 15 16 17 17 17 16 16 16 16 15 14 14 14 14 13 14 15 16 17 19 20 20 21 22 21 21 20 19 19 18 18 17 16 16 15 15 13 13 13 13 14 16 17 18 20 22 22 21 22 22 23 26 26 23 21 23 22 19 19 21 21 21 21 21 21
2 2 2 5 9 12 14 14 14 15 17 17 17 18 16 13 11 12 12 12 13 14 15 15 15 14 14 14 14 13 13 13 14 14 14 14 14 14 14 15 16 17 18 19 20 21 20 20 20 19 19 19 18 17 17 16 15 14 13 13 14 15 17 18 19 20 19 18 19 20 21 23 24 20 19 20 21 19 19 21 21 21 21 21 23
3 3 3 3 4 6 9 12 13 14 15 15 15 15 13 10 10 11 11 11 11 11 11 12 12 12 11 11 10 11 11 11 11 13 14 14 15 15 14 14 14 14 14 14 15 16 16 16 16 16 16 16 16 15 15 14 14 13 13 12 11 12 13 15 17 19 19 18 18 18 18 19 19 18 17 18 19 19 19 20 21 22 24 25 27
4 4 4 3 3 3 4 7 9 10 11 11 12 13 12 11 11 11 11 11 11 10 9 9 9 9 9 9 9 9 9 9 10 11 12 13 14 14 13 13 13 13 12 12 12 12 12 12 12 11 11 11 11 11 10 10 10 10 10 10 10 10 11 12 13 15 16 17 16 16 16 16 17 18 18 18 18 18 19 19 19 21 24 27 27
4 4 4 3 3 4 5 5 5 6 7 8 9 10 10 10 9 10 10 10 10 8 8 8 8 8 8 8 8 8 9 9 9 10 11 11 11 11 11 11 12 11 11 11 11 10 10 10 9 9 8 8 7 6 6 6 6 7 7 8 9 9 9 10 11 12 14 15 16 16 17 17 17 17 17 17 17 18 19 19 19 19 22 24 25
5 4 4 4 3 4 5 6 5 4 5 6 6 7 8 7 7 7 8 7 6 5 5 6 6 6 6 7 7 7 8 8 8 9 9 9 9 9 10 10 10 10 10 10 9 9 8 8 8 8 7 7 6 5 4 4 3 4 5 6 6 7 7 9 11 12 13 15 16 17 19 20 19 19 18 19 19 19 20 21 21 20 21 23 24
7 6 5 4 4 4 4 5 6 6 5 5 6 6 6 5 4 4 4 4 3 3 4 4 5 5 5 5 6 6 6 7 7 8 8 8 8 8 8 9 9 9 9 9 8 8 7 6 6 5 5 5 5 4 3 3 3 3 3 5 6 6 7 7 7 7 9 11 13 14 16 17 19 19 19 18 19 21 21 21 20 18 19 21 23
8 7 6 6 5 4 4 5 6 6 6 6 6 6 6 6 5 4 4 3 3 3 3 3 3 4 4 4 5 5 5 6 6 6 7 8 8 7 7 7 7 7 7 7 7 7 6 6 5 4 3 3 2 2 2 2 2 2 4 5 6 6 6 6 6 5 5 6 8 9 10 10 11 13 13 13 14 16 17 16 16 16 17 20 21
Wind_Direction
215 213 204 202 201 195 195 195 193 195 195 192 189 189 190 192 193 194 196 199 205 206 200 196 200 203 203 203 206 209 209 209 210 216 220 217 215 214 215 227 232 229 230 231 228 232 237 238 240 242 245 246 246 247 246 244 246 245 246 247 246 247 246 249 261 272 280 280 274 268 267 260 261 276 299 298 318 339 336 327 336 344 348 347 344
205 200 198 202 198 194 196 198 197 196 194 191 189 189 191 192 191 192 196 200 204 206 203 199 199 200 200 202 205 207 212 213 211 216 221 221 221 219 217 226 232 231 231 233 231 232 239 244 245 243 246 248 244 243 244 244 245 244 243 244 245 244 244 247 255 267 278 277 267 265 264 258 265 274 275 272 295 321 328 316 324 335 341 341 342
198 189 193 200 197 192 193 198 199 194 191 191 190 191 191 191 191 190 192 197 199 202 202 200 200 200 200 203 204 206 214 219 215 216 219 220 220 220 220 226 232 231 230 233 235 235 238 244 246 244 243 244 242 242 242 243 245 246 244 243 244 245 244 247 253 262 272 272 267 264 261 260 265 268 276 290 293 291 288 297 312 329 334 334 339
196 193 195 199 197 191 191 197 197 191 191 193 191 191 192 192 193 192 190 193 196 196 195 195 199 201 200 203 208 208 212 217 216 216 218 219 219 219 220 222 226 228 228 230 234 236 238 241 243 242 240 239 240 240 240 241 243 244 245 245 245 245 246 249 255 260 266 270 266 258 256 256 249 252 275 292 284 277 288 297 313 327 329 333 338
194 197 196 197 195 193 196 198 194 190 192 193 192 192 191 191 194 195 192 192 195 197 197 195 198 205 205 204 210 213 212 213 216 217 219 221 221 222 223 223 224 226 227 229 232 234 237 239 240 240 239 239 240 240 240 241 241 243 245 245 246 248 248 248 253 260 266 268 266 264 264 257 245 253 271 278 267 281 297 300 309 320 324 327 329
191 195 196 197 195 195 197 195 191 192 193 192 192 193 192 192 194 195 194 194 195 198 202 201 200 208 211 207 210 215 214 214 216 216 216 220 223 224 225 225 226 227 228 231 233 234 236 238 240 240 239 239 240 241 240 240 241 243 245 246 248 249 249 252 257 262 266 270 270 266 263 253 248 257 264 259 248 265 284 290 295 306 315 316 317
192 191 193 197 197 194 194 192 191 194 193 192 193 192 192 192 194 196 196 197 198 198 203 207 205 208 212 210 210 215 215 215 217 216 216 218 222 224 225 225 227 229 230 232 233 235 236 238 239 240 239 240 239 239 240 242 243 244 246 249 250 248 249 253 253 255 261 267 268 267 267 264 260 259 262 263 250 245 255 263 275 289 296 301 306
190 190 189 193 195 193 192 192 194 196 194 193 194 193 193 194 194 197 198 199 202 201 203 207 207 207 210 211 212 215 217 218 218 219 219 219 221 223 224 226 228 229 232 233 234 235 236 237 238 239 238 240 240 237 237 239 242 244 246 248 246 247 250 247 247 254 263 265 262 265 269 267 262 257 260 268 264 249 246 244 255 275 284 290 297
185 188 189 190 193 194 193 192 194 195 195 195 196 195 195 196 197 199 200 201 203 205 205 205 207 208 210 212 214 215 218 221 221 222 222 222 223 225 226 227 229 230 232 235 235 236 237 238 238 237 238 243 244 240 237 237 240 242 244 247 247 250 254 253 254 262 268 266 264 264 262 260 262 260 257 266 270 255 242 234 242 261 272 280 285
184 185 188 188 193 199 199 196 195 195 197 200 202 201 199 200 201 202 204 204 204 206 208 207 208 211 212 214 216 217 220 223 225 226 224 221 222 225 227 229 231 232 234 236 237 238 239 240 240 239 242 246 246 244 242 241 242 242 241 245 252 253 253 257 262 265 267 268 268 266 261 254 255 255 256 266 268 249 238 232 234 253 270 274 273
188 184 186 188 192 198 201 202 201 201 202 204 206 207 205 204 206 207 208 209 208 208 210 210 211 213 215 217 219 221 223 224 228 232 232 228 225 225 229 232 233 234 236 237 239 240 241 242 242 243 248 249 245 244 245 242 241 243 242 243 249 253 253 257 263 267 270 269 262 259 260 254 248 252 258 262 257 242 241 240 239 254 269 271 269
196 186 190 197 199 200 201 201 203 206 207 209 210 211 210 209 210 211 211 212 213 214 215 215 215 216 218 221 222 224 226 226 228 234 236 232 228 228 229 233 236 237 237 236 238 239 240 241 241 242 248 250 246 244 245 244 241 242 243 242 245 250 252 255 259 263 268 268 259 256 260 261 261 261 257 251 245 239 239 242 248 258 266 268 267
202 190 197 209 210 209 208 204 204 207 209 211 213 215 216 215 214 214 214 215 215 219 222 223 223 223 223 225 226 227 229 229 231 235 237 232 227 227 229 232 235 237 236 235 236 237 238 240 240 240 244 250 248 242 241 245 246 244 244 245 246 249 250 252 255 258 260 261 259 259 261 263 262 255 244 238 240 240 239 245 253 259 264 264 257
206 199 208 218 217 215 215 213 212 211 211 213 215 216 218 219 219 217 218 219 219 222 226 227 228 229 228 229 230 231 231 231 233 238 241 237 230 227 229 232 235 237 237 237 237 238 240 241 242 242 242 246 248 243 240 245 249 250 249 249 249 250 250 250 251 252 256 259 261 261 261 262 258 248 244 249 254 252 249 250 249 248 253 255 250
211 205 212 219 217 215 217 218 218 217 215 215 216 218 220 221 221 220 220 222 224 226 230 231 230 231 233 233 233 234 234 235 237 241 244 241 233 229 231 233 235 236 237 239 240 240 243 247 248 246 244 244 247 247 244 244 248 253 255 255 254 253 253 253 252 254 260 265 267 266 262 260 257 250 251 259 262 260 256 254 250 246 247 247 243
211 209 212 216 218 218 218 218 220 221 220 218 218 219 220 222 223 224 224 225 226 228 231 233 233 235 237 238 238 237 237 237 240 245 247 242 234 231 232 235 237 237 237 238 241 241 242 245 247 248 247 248 250 250 247 245 248 254 258 261 261 260 259 259 257 260 266 268 268 267 263 260 258 255 255 254 251 256 260 260 256 255 254 247 238
209 215 219 220 222 222 222 221 221 221 222 222 221 220 221 222 223 225 227 228 229 230 231 233 236 237 238 240 240 241 240 239 242 246 247 243 236 232 234 236 238 240 239 239 242 245 245 245 245 247 248 249 249 249 248 246 249 254 258 261 263 262 261 262 262 264 269 269 267 264 261 260 257 254 254 251 249 255 259 259 258 261 262 252 242
218 221 224 226 228 227 226 226 227 226 226 227 227 225 225 225 224 224 226 227 229 231 232 233 235 237 238 240 241 243 243 242 244 247 247 244 239 235 236 238 240 242 243 243 244 247 249 248 247 247 249 249 249 248 247 246 248 252 255 259 259 259 259 260 263 267 269 268 266 262 258 257 254 251 253 253 252 256 257 258 260 261 259 252 249
230 230 227 228 232 234 232 232 232 233 233 233 232 232 232 233 232 229 228 228 229 232 233 234 236 237 239 241 241 243 243 243 245 248 247 244 241 238 237 238 240 242 244 245 247 249 250 250 249 248 249 249 250 249 247 245 246 250 254 257 256 256 254 253 260 270 272 267 264 262 257 254 251 249 252 254 254 254 254 255 256 256 249 243 247
231 236 235 232 232 234 239 241 239 239 239 238 236 235 236 238 239 238 236 234 234 236 237 238 240 241 243 244 244 244 244 244 245 248 248 245 241 238 238 239 240 242 244 246 247 250 252 252 251 249 248 247 249 249 248 245 246 249 254 255 255 254 253 253 261 270 272 267 264 259 253 250 249 249 252 256 256 253 253 257 260 261 250 240 246
227 231 235 235 233 232 236 239 237 238 241 242 239 236 235 236 238 240 241 240 239 241 241 241 242 243 244 245 246 245 246 246 247 249 250 248 244 240 240 241 241 242 244 245 246 248 250 252 252 251 248 246 247 249 248 246 245 248 252 255 256 256 256 258 263 268 268 264 260 256 252 250 251 252 253 255 255 253 253 256 258 256 249 245 251
231 228 227 227 227 228 231 234 235 235 239 243 245 243 240 240 239 239 240 240 241 243 245 246 246 246 246 246 246 246 246 247 247 248 249 248 246 243 241 242 243 243 245 246 246 246 246 249 253 252 250 250 250 250 249 248 246 246 249 253 257 257 257 260 262 263 262 258 254 255 254 251 251 253 252 252 255 256 253 253 254 251 246 245 245
226 229 228 225 227 230 234 238 241 241 241 243 246 247 247 248 246 245 245 244 243 243 245 247 249 249 248 248 248 247 246 246 245 246 247 247 246 244 242 242 242 243 245 247 248 249 249 251 254 255 254 254 253 252 251 250 248 247 248 251 254 255 256 257 257 257 256 252 250 252 254 251 248 248 250 253 259 261 256 249 244 237 233 231 223
210 217 227 227 228 233 240 243 245 246 247 249 251 253 253 254 253 253 253 252 251 250 249 249 250 251 251 251 250 248 247 247 246 246 247 247 245 244 242 241 241 241 244 246 248 249 251 253 255 256 256 255 255 254 253 251 250 248 248 249 251 252 252 253 253 253 251 249 249 249 251 250 245 247 255 260 263 263 253 237 227 225 227 225 215
214 217 231 234 232 237 244 250 254 257 259 260 262 264 263 263 263 262 261 261 260 259 257 255 254 254 254 254 254 251 250 250 250 248 248 248 247 246 245 243 242 242 243 244 245 246 248 249 251 254 254 253 254 255 254 252 251 249 247 246 246 248 248 248 249 249 248 249 249 247 247 248 246 250 259 265 266 262 247 230 224 227 223 211 200
228 224 233 238 243 247 250 255 262 265 268 271 273 275 276 275 272 270 268 267 266 266 265 263 261 261 259 258 258 257 254 253 253 250 250 251 252 253 252 250 248 246 246 246 245 246 247 248 250 252 254 254 253 253 254 253 252 251 247 244 243 245 246 245 245 247 248 249 248 243 242 246 249 253 260 263 262 259 248 232 223 217 207 200 198
240 243 247 248 252 256 259 265 270 272 275 277 278 281 283 282 279 275 272 270 268 268 267 267 266 265 263 263 263 262 259 257 257 255 253 252 254 256 258 257 254 252 250 249 248 247 248 248 250 252 254 254 253 252 252 253 253 251 248 245 244 245 245 243 243 246 246 244 242 242 245 251 254 257 260 259 254 248 240 227 213 202 197 198 198
233 249 260 263 263 266 267 269 273 277 279 281 283 286 285 283 281 277 273 272 273 272 271 271 270 268 266 264 262 261 259 257 257 257 255 253 252 252 254 257 258 257 255 253 251 251 250 250 250 251 252 253 252 251 250 250 251 250 248 247 246 245 243 242 242 245 246 244 245 250 255 257 256 256 256 252 245 235 225 212 202 197 194 191 187
237 244 257 268 276 285 287 279 270 272 278 282 286 287 284 278 273 275 278 280 282 282 279 276 273 270 268 265 262 261 259 255 250 248 249 248 246 244 243 246 252 256 259 259 257 255 253 251 249 248 249 250 250 250 249 249 249 249 248 248 248 247 245 244 246 249 250 251 251 253 253 252 253 253 252 246 236 222 208 198 195 194 189 185 183
244 243 254 267 272 280 290 288 277 272 277 280 281 285 289 283 271 274 285 290 292 295 292 286 280 274 269 266 263 261 260 257 253 250 247 245 243 243 243 242 243 245 248 252 253 252 250 249 246 245 245 246 246 247 247 247 247 248 248 248 250 252 250 247 246 248 249 250 250 250 250 252 253 251 246 236 221 204 194 189 189 190 185 181 180
242 245 256 268 266 266 272 276 276 278 286 286 277 271 287 290 282 286 301 308 314 320 315 304 293 282 274 272 271 269 267 265 262 258 254 249 246 245 244 242 243 244 243 245 249 249 247 246 247 246 244 244 244 243 243 243 244 247 249 250 252 254 252 249 248 247 246 246 246 246 249 251 248 242 235 225 207 192 186 184 184 184 179 175 174
241 246 251 256 267 277 277 271 268 273 284 290 281 255 255 274 288 312 334 343 344 344 342 334 321 303 287 280 279 279 277 272 265 260 256 252 248 245 241 241 246 248 245 242 246 247 244 245 247 246 244 244 245 245 244 242 240 244 249 252 252 253 253 250 247 245 243 243 245 244 243 241 233 223 218 210 195 184 180 179 178 175 170 169 171
241 246 248 253 266 275 276 271 272 275 275 276 271 261 259 266 290 320 344 3 6 1 358 357 356 349 335 312 292 282 276 272 268 262 256 252 249 243 236 235 240 243 242 242 243 243 243 246 248 247 244 244 245 246 244 241 239 243 249 251 253 254 253 246 241 240 239 240 242 241 236 229 217 207 201 194 187 182 177 173 172 169 167 169 171
239 241 244 251 260 263 261 262 270 276 276 270 254 255 267 278 290 311 337 359 6 3 1 3 9 11 5 358 343 312 284 270 267 267 261 255 246 231 222 224 232 239 246 250 249 245 244 245 247 247 247 246 244 242 240 239 239 243 247 249 251 252 246 236 231 233 234 233 234 233 227 217 206 198 190 184 183 181 173 169 169 168 167 169 169
240 245 249 255 256 252 252 266 272 273 277 275 258 249 263 274 286 300 323 344 352 353 351 354 5 12 10 14 22 20 359 310 277 269 267 257 235 220 218 226 238 247 252 253 252 248 245 245 247 250 250 246 242 240 240 241 242 243 245 247 246 243 238 230 224 224 226 225 222 218 212 205 198 192 185 180 179 176 170 167 168 166 166 169 167
239 248 258 262 258 245 244 262 275 280 275 270 262 254 256 262 277 286 304 331 344 346 344 343 352 3 6 12 27 38 40 37 28 3 312 260 227 223 229 236 244 250 250 248 246 244 244 244 245 247 247 244 242 241 242 242 239 237 236 236 231 228 227 225 219 217 217 214 207 200 194 187 186 187 183 177 174 171 167 166 166 166 169 170 168
244 252 267 273 265 253 250 259 276 294 294 284 268 258 261 271 281 282 294 325 338 339 341 344 352 4 12 19 27 38 45 47 49 54 60 67 85 163 222 233 239 244 245 243 240 239 241 243 242 243 247 249 247 244 240 234 226 218 213 213 216 217 216 213 208 204 200 192 185 183 182 180 180 182 178 173 169 166 164 165 168 170 172 171 168
248 259 280 291 277 263 262 270 288 300 298 290 281 279 282 289 303 317 346 4 6 359 343 349 8 24 31 35 40 45 49 52 55 59 63 68 72 76 83 94 109 142 193 223 232 235 241 244 242 241 241 237 230 224 216 206 199 192 186 188 196 202 201 194 188 183 177 172 170 174 177 177 175 173 170 167 165 164 166 171 174 173 172 172 170
84 65 22 3 344 294 259 256 275 285 279 266 261 263 307 35 40 53 55 46 37 22 359 18 48 59 63 64 65 65 67 69 70 70 72 74 75 75 79 84 86 91 98 103 113 138 160 165 165 172 178 175 171 174 177 177 177 176 175 176 177 176 173 171 169 166 165 165 167 171 172 172 169 167 167 168 169 169 171 173 174 174 174 173 171
84 76 71 63 47 39 77 145 218 304 336 324 180 163 143 125 109 95 83 73 63 58 68 83 86 85 84 82 78 74 72 71 72 74 75 77 78 77 77 78 79 83 93 105 116 123 125 127 131 139 144 144 145 150 156 159 159 158 159 161 161 160 160 163 165 166 167 168 169 170 170 170 169 169 171 172 171 171 171 171 172 175 177 175 174
83 75 74 76 74 66 62 78 108 99 73 76 102 124 124 116 113 108 99 94 91 90 95 100 101 98 95 93 89 84 79 74 72 73 73 73 76 79 78 77 76 77 83 98 114 122 123 124 127 131 133 134 137 141 144 145 145 146 149 152 152 154 159 163 162 162 164 167 168 167 168 170 171 170 171 171 171 171 172 172 174 177 178 178 178
90 80 73 74 77 77 69 68 87 101 97 93 104 112 108 100 97 99 105 111 113 107 103 103 102 98 95 92 88 86 84 80 76 75 72 70 72 75 77 78 79 80 82 87 97 108 116 122 124 124 125 126 129 132 135 139 141 142 144 147 149 153 158 160 159 158 160 163 165 167 170 172 171 170 170 172 174 176 177 177 179 181 181 182 184
94 86 84 79 76 77 76 70 68 75 90 101 103 102 98 94 94 98 104 112 114 110 106 104 101 97 94 91 86 82 81 80 79 79 78 76 76 78 79 80 81 82 84 85 87 92 100 107 112 113 113 115 118 121 124 126 129 132 136 137 140 147 152 154 156 158 160 162 165 169 173 175 172 170 175 180 180 181 183 183 184 185 186 187 189
104 80 79 78 74 74 77 74 66 65 74 83 86 85 85 87 91 94 98 103 108 108 106 104 101 98 95 92 88 83 81 81 82 81 81 81 83 86 88 89 88 87 87 87 87 89 91 95 98 100 102 104 106 107 110 112 114 119 126 131 137 143 147 150 154 157 158 163 169 172 176 178 176 176 183 186 184 184 189 191 190 192 193 194 196
160 176 118 89 77 75 80 82 78 75 75 77 78 79 80 80 84 89 93 98 103 104 104 104 103 99 94 91 90 89 87 84 83 81 80 80 81 84 88 92 93 93 93 92 92 91 91 91 93 95 96 97 99 100 103 107 109 112 118 124 134 144 150 155 160 162 164 169 174 176 179 183 182 182 188 192 191 193 198 198 196 198 199 198 198
207 196 175 144 106 86 84 87 90 92 93 93 92 91 90 88 88 92 96 99 100 101 105 107 107 103 98 95 95 95 93 91 88 86 83 82 82 82 82 84 86 88 90 93 95 96 97 96 96 96 97 98 100 102 103 105 108 112 116 121 129 142 153 161 167 171 173 175 177 178 182 185 186 188 195 198 198 202 207 208 207 206 206 205 207
204 193 181 177 172 155 123 103 96 99 105 108 107 106 105 104 100 99 102 106 108 106 104 104 104 103 102 100 98 97 98 99 98 96 93 90 87 84 81 81 82 82 85 88 90 94 97 99 100 102 103 105 108 112 115 118 121 125 129 134 141 150 159 165 171 176 181 183 184 187 192 192 193 199 205 205 203 206 212 213 214 215 216 218 219
200 191 181 171 162 166 165 149 126 114 118 122 123 121 119 116 111 109 109 110 110 109 108 107 108 108 108 107 105 104 104 102 100 101 101 100 95 90 86 85 83 82 82 85 88 91 95 98 100 102 103 104 107 114 120 130 140 148 156 164 168 170 173 176 181 186 192 195 195 198 203 203 201 206 211 211 210 213 214 215 219 226 228 227 226
202 190 182 173 160 160 169 169 163 156 150 146 143 142 138 132 125 120 117 114 114 115 116 115 115 115 118 120 118 115 113 111 110 111 111 109 106 102 98 94 92 88 85 83 86 90 94 98 102 105 108 109 110 112 115 125 146 165 173 176 181 185 189 195 202 208 212 213 215 219 221 220 219 222 226 227 227 228 228 229 234 237 235 231 229
206 199 194 187 171 156 161 169 170 169 167 166 164 163 161 159 154 144 139 138 144 145 137 128 122 119 124 129 130 128 126 124 121 122 123 120 117 116 111 105 102 98 94 90 88 87 87 91 96 99 104 109 114 122 133 143 152 152 144 145 155 167 173 180 189 198 205 213 221 229 231 228 227 229 233 233 234 237 236 235 236 237 235 233 231
211 207 204 200 190 178 169 173 176 176 177 179 179 175 173 176 180 181 179 179 178 172 162 152 146 140 137 138 141 146 151 147 140 139 140 135 129 129 128 124 119 113 107 103 97 89 85 84 83 83 88 101 120 144 165 170 167 157 144 142 147 152 155 157 158 163 179 200 213 219 221 220 221 225 227 229 233 237 236 232 229 231 234 235 232